TimeMST,TemperatureF,Dew PointF,Humidity,Sea Level PressureIn,VisibilityMPH,Wind Direction,Wind SpeedMPH,Gust SpeedMPH,PrecipitationIn,Events,Conditions,WindDirDegrees,DateUTC
12:53 AM,26.1,21.9,84,30.12,10.0,Calm,Calm,-,N/A,,Clear,0,2014-02-08 07:53:00
1:53 AM,26.1,21.9,84,30.12,10.0,NE,3.5,-,N/A,,Mostly Cloudy,50,2014-02-08 08:53:00
2:53 AM,27.0,23.0,85,30.12,10.0,ENE,8.1,-,N/A,,Mostly Cloudy,60,2014-02-08 09:53:00
3:53 AM,28.0,24.1,85,30.11,10.0,East,5.8,-,N/A,,Overcast,100,2014-02-08 10:53:00
4:53 AM,25.0,21.9,88,30.10,10.0,East,8.1,-,N/A,,Clear,90,2014-02-08 11:53:00
5:53 AM,25.0,21.9,88,30.14,10.0,NE,3.5,-,N/A,,Clear,50,2014-02-08 12:53:00
6:53 AM,25.0,21.0,85,30.16,10.0,East,8.1,-,N/A,,Clear,80,2014-02-08 13:53:00
7:53 AM,27.0,23.0,85,30.20,10.0,NE,5.8,-,N/A,,Clear,50,2014-02-08 14:53:00
8:53 AM,30.9,25.0,79,30.22,10.0,East,6.9,-,N/A,,Partly Cloudy,90,2014-02-08 15:53:00
9:53 AM,34.0,27.0,75,30.23,10.0,ESE,6.9,-,N/A,,Clear,110,2014-02-08 16:53:00
10:53 AM,39.0,28.0,65,30.23,10.0,ENE,3.5,-,N/A,,Clear,60,2014-02-08 17:53:00
11:53 AM,44.1,27.0,51,30.21,10.0,Variable,3.5,-,N/A,,Clear,0,2014-02-08 18:53:00
12:53 PM,46.9,26.1,44,30.17,10.0,NNW,4.6,-,N/A,,Clear,340,2014-02-08 19:53:00
1:53 PM,48.0,26.1,42,30.17,10.0,Variable,3.5,-,N/A,,Clear,0,2014-02-08 20:53:00
2:53 PM,50.0,26.1,39,30.13,10.0,Variable,3.5,-,N/A,,Clear,0,2014-02-08 21:53:00
3:53 PM,51.1,25.0,36,30.12,10.0,West,5.8,-,N/A,,Clear,270,2014-02-08 22:53:00
4:53 PM,48.0,26.1,42,30.13,10.0,NNE,3.5,-,N/A,,Clear,30,2014-02-08 23:53:00
5:53 PM,46.0,26.1,46,30.15,10.0,East,3.5,-,N/A,,Clear,80,2014-02-09 00:53:00
6:53 PM,44.1,27.0,51,30.17,10.0,ENE,4.6,-,N/A,,Clear,60,2014-02-09 01:53:00
7:53 PM,42.1,28.0,58,30.17,10.0,East,5.8,-,N/A,,Partly Cloudy,90,2014-02-09 02:53:00
8:53 PM,42.1,28.9,60,30.17,10.0,ENE,6.9,-,N/A,,Overcast,70,2014-02-09 03:53:00
9:53 PM,41.0,28.0,60,30.17,10.0,East,4.6,-,N/A,,Overcast,80,2014-02-09 04:53:00
10:53 PM,39.9,28.0,63,30.16,10.0,East,9.2,-,N/A,,Mostly Cloudy,80,2014-02-09 05:53:00
11:53 PM,37.0,28.0,70,30.14,10.0,East,6.9,-,N/A,,Scattered Clouds,100,2014-02-09 06:53:00